Flag for Norway Weather past 2 weeks in Vadsø, Norway

Now
32 °F

Passing clouds.


Feels Like: 19 °F
Forecast: 33 / 39 °F
Wind: 22 mph from South

Location: Vadso

Current Time: Oct 25, 2014 at 1:12:23 AM

Latest Report: Oct 25, 2014 at 12:50 AM


Visibility: N/A

Pressure: 29.95 "Hg

Humidity: 80%

Dew point: 27 °F

Location of VadsøLocation

Historic Weather in Vadsø — Graph

°F

Vadsø temperature yesterday

Maximum temperature yesterday: 32 °F (at 4:50 PM)
Minimum temperature yesterday: 23 °F (at 12:50 AM)
Average temperature yesterday: 29 °F

Past Weeks' High & Low Weather Summary

 TemperatureHumidityPressure
High37 °F (Oct 10, 3:50 PM)100% (Oct 13, 10:50 PM)30.39 "Hg (Oct 13, 10:50 PM)
Low21 °F (Oct 21, 8:50 AM)59% (Oct 20, 7:50 AM)29.74 "Hg (Oct 20, 4:50 AM)
Average30 °F81%30.03 "Hg
* Reported Oct 9 11:50 PM — Oct 24 11:50 PM, Vadsø, Weather by CustomWeather, © 2014

Note: Actual official high and low records may vary slightly from our data, if they occured in-between our weather recording intervals... More about our weather records

Advertising

Vadsø weather history for previous 24 hours

 ConditionsComfort  
Time TempWeatherWind HumidityBarometerVisibility
11:50 PM
Oct 24
32 °FPassing clouds.18 mph80%29.98 "HgN/A
10:50 PM32 °FPassing clouds.23 mph80%29.98 "HgN/A
9:50 PM32 °FPassing clouds.23 mph80%29.98 "HgN/A
8:50 PM32 °FPassing clouds.21 mph80%29.98 "HgN/A
7:50 PM32 °FPassing clouds.21 mph80%30.01 "HgN/A
6:50 PM32 °FPassing clouds.23 mph75%30.01 "HgN/A
5:50 PM32 °FPassing clouds.24 mph75%30.01 "HgN/A
4:50 PM32 °FPassing clouds.25 mph75%30.04 "HgN/A
3:50 PM30 °FPassing clouds.24 mph80%30.04 "HgN/A
2:50 PM30 °FScattered showers. Partly cloudy.21 mph80%30.07 "HgN/A
2:20 PM28 °FScattered showers. Partly sunny.21 mph80%30.09 "HgN/A
12:50 PM28 °FPartly sunny.20 mph80%30.09 "HgN/A
11:50 AM27 °FBroken clouds.18 mph80%30.12 "HgN/A
10:50 AM27 °FBroken clouds.23 mph80%30.12 "HgN/A
9:50 AM27 °FScattered showers. Broken clouds.25 mph80%30.12 "HgN/A
8:50 AM25 °FBroken clouds.18 mph80%30.15 "HgN/A
7:50 AM25 °FScattered clouds.18 mph80%30.15 "HgN/A
6:50 AM25 °FPassing clouds.20 mph80%30.15 "HgN/A
4:50 AM23 °FPassing clouds.17 mph80%30.21 "HgN/A
Weather by CustomWeather, © 2014

See weather overviewHow to use our weather pages